Tracking 31027 objects as of 19-Jul-2025
HD Live streaming from Space Station
objects crossing your sky now

COSMOS 839 DEB

Track COSMOS 839 DEB now!
10-day predictions


NORAD ID: 10447
Int'l Code: 1976-067Y
Perigee: 966.1 km
Apogee: 2,086.8 km
Inclination: 65.9 °
Period: 116.4 minutes
Semi major axis: 7897 km
RCS: 0.0759 m2 (small)
Launch date: July 8, 1976
Source: Commonwealth of Independent States (former USSR) (CIS)
Launch site: PLESETSK MISSILE AND SPACE COMPLEX (PKMTR)

Note: This is SATELLITE DEBRIS
Your satellite tracking list
COSMOS 1408 DEB
Track 1 satellite(s)




NASA's NSSDC Master Catalog

Two Line Element Set (TLE):
1 10447U 76067Y   25199.41085545 -.00000066  00000-0 -34510-4 0  9991
2 10447  65.8650 323.9301 0709543 354.0737  60.0452 12.37003368212955
Source of the keplerian elements: AFSPC